Home > Time Zones > World Clock > Weather > Macau > Macau > Past weeks

Flag for Macau Weather past 2 weeks in Macau, Macau

Now
73 °F

Fog.


Feels Like: 70 °F
Forecast: 72 / 76 °F
Wind: 18 mph from East

Location: Taipa


UV Index: 7 (High)

Visibility: 3 mi


Pressure: 29.80 "Hg

Humidity: 94%

Dew point: 72 °F

Location of MacauLocation

Historic Weather in Macau

°F

Macau temperature yesterday

Maximum temperature yesterday: 79 °F (at 10:30 AM)
Minimum temperature yesterday: 73 °F (at 1:00 AM)
Average temperature yesterday: 76 °F

Past Weeks' High & Low Weather Summary

 TemperatureHumidityPressure
High81 °F (Apr 13, 2:00 PM)100% (Apr 8, 10:30 PM)30.04 "Hg (Apr 8, 10:30 PM)
Low66 °F (Apr 9, 3:00 AM)69% (Apr 15, 11:30 AM)29.80 "Hg (Apr 12, 5:00 PM)
Average74 °F89%29.90 "Hg
* Reported Apr 8 3:00 PM — Apr 23 3:30 PM, Macau, Weather by CustomWeather, © 2014

Note: Actual official high and low records may vary slightly from our data, if they occured in-between our weather recording intervals... More about our weather records

Advertising

Historic Weather Conditions — Data for Previous 24 hours

 ConditionsComfort  
Time TempWeatherWind HumidityBarometerVisibility
3:30 PM
Apr 23
73 °FFog.17 mph94%29.83 "Hg3 mi
3:00 PM73 °FFog.18 mph94%29.83 "Hg3 mi
2:30 PM73 °FFog.16 mph94%29.83 "Hg3 mi
2:00 PM73 °FLight rain. Fog.16 mph94%29.86 "Hg2 mi
1:30 PM73 °FLight rain. Fog.12 mph94%29.86 "Hg2 mi
1:00 PM73 °FFog.16 mph94%29.89 "Hg3 mi
12:30 PM73 °FFog.17 mph94%29.89 "Hg3 mi
12:00 PM73 °FLight rain. Fog.17 mph94%29.89 "Hg2 mi
11:30 AM73 °FLight rain. Fog.15 mph94%29.92 "Hg2 mi
11:00 AM73 °FFog.14 mph100%29.92 "Hg2 mi
10:30 AM75 °FFog.13 mph94%29.92 "Hg3 mi
10:00 AM75 °FFog.14 mph94%29.92 "Hg3 mi
9:30 AM75 °FFog.14 mph94%29.92 "Hg2 mi
9:00 AM75 °FFog.14 mph94%29.92 "Hg2 mi
8:30 AM75 °FFog.17 mph94%29.92 "Hg2 mi
8:00 AM75 °FFog.15 mph94%29.92 "Hg2 mi
7:30 AM75 °FFog.14 mph94%29.89 "Hg2 mi
7:00 AM75 °FLight rain. Fog.10 mph100%29.89 "Hg1 mi
6:30 AM75 °FFog.8 mph100%29.89 "Hg2 mi
6:00 AM75 °FFog.6 mph100%29.89 "Hg3 mi
5:30 AM75 °FPassing clouds.7 mph94%29.89 "Hg4 mi
5:00 AM75 °FPassing clouds.7 mph94%29.89 "Hg4 mi
4:30 AM75 °FPassing clouds.6 mph94%29.89 "Hg4 mi
4:00 AM75 °FPassing clouds.6 mph94%29.86 "Hg4 mi
3:30 AM75 °FPassing clouds.7 mph94%29.86 "Hg4 mi
3:00 AM75 °FPassing clouds.2 mph94%29.86 "Hg4 mi
2:30 AM75 °FPassing clouds.No wind100%29.89 "Hg4 mi
2:00 AM75 °FFog.2 mph100%29.89 "Hg3 mi
1:30 AM75 °FFog.3 mph100%29.89 "Hg3 mi
1:00 AM75 °FPassing clouds.2 mph94%29.89 "Hg4 mi
12:30 AM75 °FPassing clouds.3 mph100%29.89 "Hg4 mi
12:00 AM75 °FPassing clouds.5 mph94%29.89 "Hg4 mi
11:30 PM
Apr 22
75 °FPassing clouds.3 mph100%29.89 "Hg4 mi
11:00 PM75 °FPassing clouds.5 mph100%29.89 "Hg4 mi
10:30 PM75 °FPassing clouds.2 mph94%29.92 "Hg4 mi
10:00 PM75 °FPassing clouds.1 mph94%29.89 "Hg4 mi
9:30 PM75 °FPassing clouds.2 mph100%29.89 "Hg4 mi
9:00 PM75 °FPassing clouds.1 mph100%29.89 "Hg4 mi
8:30 PM75 °FPassing clouds.3 mph94%29.86 "Hg4 mi
8:00 PM75 °FPassing clouds.5 mph94%29.86 "Hg4 mi
7:30 PM75 °FPassing clouds.7 mph100%29.86 "Hg4 mi
7:00 PM77 °FPassing clouds.5 mph94%29.86 "Hg4 mi
6:30 PM77 °FScattered clouds.6 mph89%29.86 "Hg6 mi
6:00 PM77 °FScattered clouds.7 mph89%29.86 "Hg6 mi
5:30 PM77 °FScattered clouds.8 mph89%29.83 "Hg6 mi
5:00 PM77 °FScattered clouds.7 mph89%29.83 "Hg5 mi
4:30 PM77 °FScattered clouds.5 mph89%29.83 "Hg4 mi
4:00 PM77 °FScattered clouds.5 mph89%29.83 "Hg4 mi
Weather by CustomWeather, © 2014

See weather overview